Regional Weather Roundup
Issued by NWS Upton, NY

Current Version | Previous Version | Text Only | Print | Product List | Glossary On
Versions: 1 2 3 4 5 6 7 8 9 10 11 12 13 14 15 16 17 18 19 20 21 22 23 24 25 26 27 28 29 30 31 32 33 34 35 36 37 38 39 40 41 42 43 44 45 46 47 48 49 50
702
ASUS41 KOKX 220309
RWROKX

REGIONAL WEATHER ROUNDUP
NATIONAL WEATHER SERVICE NEW YORK NY
1000 PM EST TUE NOV 21 2017

NOTE: "FAIR" INDICATES FEW OR NO CLOUDS BELOW 12,000 FEET WITH NO
SIGNIFICANT WEATHER AND/OR OBSTRUCTIONS TO VISIBILITY.

NYZ071-072-176-178-NJZ106-104-220400-
NEW YORK CITY METRO AREA

CITY           SKY/WX    TMP DP  RH WIND       PRES   REMARKS
Central Park   NOT AVBL
Bronx Bot Gard   N/A     50  37  62 SE1       30.07R
Bronx Lehman C   N/A     55  32  41 SW8         N/A
LaGuardia APRT MOCLDY    52  40  63 S9        30.04F
Queens College   N/A     52  32  46 SW7         N/A
Kennedy INTL   CLOUDY    49  43  80 SW9       30.07S
Breezy Point     N/A     50 N/A N/A SW5         N/A
Brooklyn Coll    N/A     52  32  46 S2          N/A
Staten Island    N/A     50  32  50 S3          N/A
Newark/Liberty MOCLDY    50  39  66 S6        30.05S
Teterboro      CLEAR     49  38  65 VRB3      30.03F
$$

NYZ177-179-078>081-220400-
LONG ISLAND NEW YORK

CITY           SKY/WX    TMP DP  RH WIND       PRES   REMARKS
Jones Beach      N/A     54 N/A N/A SW7         N/A
Wantagh          N/A     54  32  43 SW7         N/A
Matinecock PT    N/A     54 N/A N/A SW15        N/A
Farmingdale    CLOUDY    52  45  77 SW9       30.06S
MacArthur/ISP  CLOUDY    53  47  79 SW9       30.06S
Shirley        PTCLDY    53  48  83 SW8       30.07S
Mt Sinai Harb    N/A    N/A N/A N/A S7          N/A
Westhampton    CLOUDY    54  47  77 SW8       30.08S
East Hampton   FAIR      54  48  81 SW6       30.07S
Southold         N/A     52  32  46 SW6         N/A
Montauk        NOT AVBL
$$

NYZ052-065-067-220400-
HUDSON VALLEY

CITY           SKY/WX    TMP DP  RH WIND       PRES   REMARKS
White Plains   CLEAR     44  37  76 S5        30.03S
Larchmont Harb   N/A     52 N/A N/A S15         N/A
Croton On Huds   N/A     50 N/A N/A S5          N/A
Somers           N/A     48  32  53 SW6         N/A
Brewster         N/A     43  32  65 SE1         N/A
Newburgh       CLEAR     43  32  65 CALM      30.02S
Montgomery     CLEAR     32  28  85 CALM      30.00R
Suffern          N/A     43  32  65 W2          N/A
Poughkeepsie   CLEAR     36  28  73 CALM      30.01S
Albany         PTCLDY    48  28  46 S12       29.95S
$$

NJZ001-105-106-008-010-013-015-019>022-104-220400-
NEW JERSEY

CITY           SKY/WX    TMP DP  RH WIND       PRES   REMARKS
Newark/Liberty MOCLDY    50  39  66 S6        30.05S
Teterboro      CLEAR     49  38  65 VRB3      30.03F
Caldwell       CLEAR     38  32  79 CALM      30.05R
Somerville     CLOUDY    33  30  88 NW3       30.03R
Linden         FAIR      44  35  69 CALM      30.05S
Perth Amboy      N/A     50 N/A N/A S3          N/A
Sussex         CLEAR     37  30  75 CALM      30.03R
Andover        NOT AVBL
Trenton        CLOUDY    48  39  71 CALM      30.04S
Millville      CLOUDY    54  46  74 VRB5      30.06F
Atlantic City  CLOUDY    59  50  72 SW13      30.05F
Wrightstown    CLOUDY    47  40  76 W3        30.02S
Toms River     CLOUDY    48  42  80 W5        30.05F
Belmar         CLOUDY    51  41  68 SW7       30.05F
$$

PAZ047>061-062-071-220400-
EASTERN PENNSYLVANIA

CITY           SKY/WX    TMP DP  RH WIND       PRES   REMARKS
Philadelphia   MOCLDY    54  40  59 SW9       30.05S
Allentown      CLEAR     37  30  75 CALM      30.02S
Scranton       CLEAR     44  31  60 S3        29.98F
$$

CTZ002-004>006-009-010-012-RIZ004-006-007-MAZ004-011-015-220400-
SOUTHERN NEW ENGLAND
 IN CT

CITY           SKY/WX    TMP DP  RH WIND       PRES   REMARKS
Bradley INTL   CLEAR     48  39  71 S12       30.02S
Hartford       CLEAR     49  40  71 S7        30.04S
Danbury        CLEAR     49  38  65 S7        30.04S
Wtrbury/Oxford CLEAR     45  38  76 SW5       30.04R
Norwalk Harbor   N/A     52 N/A N/A S13         N/A
Bridgeport     CLEAR     54  43  66 SW12      30.04S
Meriden        CLEAR     41  38  89 CALM      30.05S
New Haven      PTCLDY    53  44  71 SW6       30.05S
Chester        FAIR      52  45  76 VRB5      30.05F
Groton         CLEAR     55  47  74 SW12      30.06R
Wilimantic     CLEAR     51  40  65 S9        30.05S

 IN RI

CITY           SKY/WX    TMP DP  RH WIND       PRES   REMARKS
Providence     PTCLDY    55  44  66 SW12G21   30.05S
Block Island   CLEAR     56  51  84 SW18      30.08R
Westerly       CLEAR     55  49  80 SW9       30.07S
 IN MA

CITY           SKY/WX    TMP DP  RH WIND       PRES   REMARKS
Boston         PTCLDY    49  41  74 SW13      30.01R
Worcester      PTCLDY    46  35  65 SW18G26   29.99R
Westfield      CLEAR     43  36  76 S9        30.01R
Provincetown   CLOUDY    54  46  74 SW21G29   30.04S
Nantucket      PTCLDY    56  50  80 SW21G30   30.09R
$$

ANZ330-335-338-340-345-350-353-355-220400-
COASTAL MARINE OBSERVATIONS


STATION/POSITION TIME  SKY/WX   TEMP    WIND        PRES    VSBY  WAVE
                                AIR SEA DIR/SP/G                  HT/PER
                 (UTC)          (F)     (DEG/KT/KT) (MB)    (MI)  (FT/S)
NY HARB ENTRANCE 0150            57 58  210/ 16/ 19 1016.9          6/ 7
20 S FIRE ISLAND 0150            59 56  210/ 19/ 23 1017.9          7/ 7
GREAT SOUTH BAY  0230            53 46  230/ 14/ 17   N/A
HUDSON CANYON    0150            62 59  210/ 23/ 27 1018.8          8/ 7
KINGS POINT      0230            52 51  220/  9/ 10 1018.4
EXECUTION ROCKS  0215            53     180/ 10/ 12   N/A
WESTERN LI SOUND 0149            53     200/ 10/ 14   N/A           0
CENTRAL LI SOUND 0215            56     230/ 14/ 19   N/A           3
ROBBINS REEF     0230            51     170/  6/  6 1018.2
$$


>>>>>>>>>>>>>>>>>>>>>>>>>>>> KEY <<<<<<<<<<<<<<<<<<<<<<<<<<<
>                                                          <
>     SKY/WX - Sky Condition/Present Weather               <
>     TMP    - Temperature in Fahrenheit                   <
>     DP     - Dew Point in Fahrenheit                     <
>     RH     - Relative Humidity in Percent                <
>     WIND   - Direction (from) and Speed in MPH           <
>     PRES   - Mean Sea Level Pressure (inches of Hg)      <
>     WCI    - Wind Chill Index                            <
>     VSB    - VISIBILITY IN MILES                         <
>     HX     - HEAT INDEX                                  <
>     TC     - TEMPERATURE IN CELSIUS                      <
>     VRB    - VARIABLE WIND DIRECTION                     <
>                                                          <
>>>>>>>>>>>>>>>>>>>>>>>>>>>> KEY <<<<<<<<<<<<<<<<<<<<<<<<<<<




USA.gov is the U.S. government's official web portal to all federal, state and local government web resources and services.